Time,TemperatureF,DewpointF,PressureIn,WindDirection,WindDirectionDegrees,WindSpeedMPH,WindSpeedGustMPH,Humidity,HourlyPrecipIn,Conditions,Clouds,dailyrainin,SoftwareType,DateUTC
2013-06-16 00:05:00,59.6,53.4,29.86,West,268,0.0,0.0,80,0.00,,,0.00,Wunderground v.1.15,2013-06-16 04:05:00,
2013-06-16 00:10:00,59.5,53.7,29.86,West,268,0.0,0.0,81,0.00,,,0.00,Wunderground v.1.15,2013-06-16 04:10:00,
2013-06-16 00:15:00,59.3,53.5,29.86,West,268,0.0,0.0,81,0.00,,,0.00,Wunderground v.1.15,2013-06-16 04:15:00,
2013-06-16 00:20:00,59.2,53.4,29.86,West,268,0.0,0.0,81,0.00,,,0.00,Wunderground v.1.15,2013-06-16 04:20:00,
2013-06-16 00:25:00,59.0,53.5,29.86,West,268,0.0,0.0,82,0.00,,,0.00,Wunderground v.1.15,2013-06-16 04:25:00,
2013-06-16 00:30:00,59.0,53.5,29.86,West,268,0.0,0.0,82,0.00,,,0.00,Wunderground v.1.15,2013-06-16 04:30:00,
2013-06-16 00:35:00,59.0,53.5,29.86,West,268,0.0,0.0,82,0.00,,,0.00,Wunderground v.1.15,2013-06-16 04:35:00,
2013-06-16 00:40:00,58.8,53.3,29.86,West,268,0.0,0.0,82,0.00,,,0.00,Wunderground v.1.15,2013-06-16 04:40:00,
2013-06-16 00:45:00,58.6,53.1,29.86,West,268,0.0,0.0,82,0.00,,,0.00,Wunderground v.1.15,2013-06-16 04:45:00,
2013-06-16 00:50:00,58.3,52.8,29.86,West,268,0.0,0.0,82,0.00,,,0.00,Wunderground v.1.15,2013-06-16 04:50:00,
2013-06-16 00:55:00,58.1,52.6,29.86,West,268,0.0,0.0,82,0.00,,,0.00,Wunderground v.1.15,2013-06-16 04:55:00,
2013-06-16 01:00:00,58.0,52.9,29.85,West,268,0.0,0.0,83,0.00,,,0.00,Wunderground v.1.15,2013-06-16 05:00:00,
2013-06-16 01:10:00,57.8,52.7,29.85,West,268,0.0,0.0,83,0.00,,,0.00,Wunderground v.1.15,2013-06-16 05:10:00,
2013-06-16 01:15:00,57.8,52.7,29.85,West,268,0.0,0.0,83,0.00,,,0.00,Wunderground v.1.15,2013-06-16 05:15:00,
2013-06-16 01:20:00,57.7,52.6,29.85,West,268,0.0,0.0,83,0.00,,,0.00,Wunderground v.1.15,2013-06-16 05:20:00,
2013-06-16 01:30:00,57.6,52.5,29.85,West,268,0.0,0.0,83,0.00,,,0.00,Wunderground v.1.15,2013-06-16 05:30:00,
2013-06-16 01:35:00,57.5,52.7,29.85,West,268,0.0,0.0,84,0.00,,,0.00,Wunderground v.1.15,2013-06-16 05:35:00,
2013-06-16 01:40:00,57.5,52.7,29.85,West,268,0.0,0.0,84,0.00,,,0.00,Wunderground v.1.15,2013-06-16 05:40:00,
2013-06-16 01:45:00,57.3,52.5,29.85,West,268,0.0,0.0,84,0.00,,,0.00,Wunderground v.1.15,2013-06-16 05:45:00,
2013-06-16 01:50:00,57.2,52.4,29.85,West,268,0.0,0.0,84,0.00,,,0.00,Wunderground v.1.15,2013-06-16 05:50:00,
2013-06-16 01:55:00,57.1,52.3,29.85,West,268,0.0,0.0,84,0.00,,,0.00,Wunderground v.1.15,2013-06-16 05:55:00,
2013-06-16 02:00:00,57.0,52.5,29.85,West,268,0.0,0.0,85,0.00,,,0.00,Wunderground v.1.15,2013-06-16 06:00:00,
2013-06-16 02:05:00,56.8,52.3,29.85,West,268,0.0,0.0,85,0.00,,,0.00,Wunderground v.1.15,2013-06-16 06:05:00,
2013-06-16 02:15:00,56.6,52.1,29.85,West,268,0.0,0.0,85,0.00,,,0.00,Wunderground v.1.15,2013-06-16 06:15:00,
2013-06-16 02:20:00,56.4,52.3,29.85,West,268,0.0,0.0,86,0.00,,,0.00,Wunderground v.1.15,2013-06-16 06:20:00,
2013-06-16 02:25:00,56.3,52.2,29.86,West,268,0.0,0.0,86,0.00,,,0.00,Wunderground v.1.15,2013-06-16 06:25:00,
2013-06-16 02:30:00,56.3,52.5,29.86,West,268,0.0,0.0,87,0.00,,,0.00,Wunderground v.1.15,2013-06-16 06:30:00,
2013-06-16 02:35:00,56.2,52.4,29.86,West,268,0.0,0.0,87,0.00,,,0.00,Wunderground v.1.15,2013-06-16 06:35:00,
2013-06-16 02:40:00,56.4,52.6,29.85,West,268,0.0,0.0,87,0.00,,,0.00,Wunderground v.1.15,2013-06-16 06:40:00,
2013-06-16 02:45:00,56.7,52.9,29.85,West,268,0.0,0.0,87,0.00,,,0.00,Wunderground v.1.15,2013-06-16 06:45:00,
2013-06-16 02:50:00,56.7,52.9,29.85,West,268,0.0,0.0,87,0.00,,,0.00,Wunderground v.1.15,2013-06-16 06:50:00,
2013-06-16 03:00:00,56.8,52.7,29.85,West,268,0.0,0.0,86,0.00,,,0.00,Wunderground v.1.15,2013-06-16 07:00:00,
2013-06-16 03:05:00,56.7,52.6,29.85,West,268,0.0,0.0,86,0.00,,,0.00,Wunderground v.1.15,2013-06-16 07:05:00,
2013-06-16 03:15:00,56.7,52.6,29.85,West,268,0.0,0.0,86,0.00,,,0.00,Wunderground v.1.15,2013-06-16 07:15:00,
2013-06-16 03:20:00,56.6,52.5,29.85,West,268,0.0,0.0,86,0.00,,,0.00,Wunderground v.1.15,2013-06-16 07:20:00,
2013-06-16 03:25:00,56.5,52.4,29.85,West,268,0.0,0.0,86,0.00,,,0.00,Wunderground v.1.15,2013-06-16 07:25:00,
2013-06-16 03:30:00,56.5,52.7,29.85,West,268,0.0,0.0,87,0.00,,,0.00,Wunderground v.1.15,2013-06-16 07:30:00,
2013-06-16 03:35:00,56.5,52.7,29.85,West,268,0.0,0.0,87,0.00,,,0.00,Wunderground v.1.15,2013-06-16 07:35:00,
2013-06-16 03:40:00,56.7,52.9,29.85,West,268,0.0,0.0,87,0.00,,,0.00,Wunderground v.1.15,2013-06-16 07:40:00,
2013-06-16 03:45:00,56.8,52.7,29.85,West,268,0.0,0.0,86,0.00,,,0.00,Wunderground v.1.15,2013-06-16 07:45:00,
2013-06-16 03:50:00,57.0,52.9,29.85,West,268,0.0,0.0,86,0.00,,,0.00,Wunderground v.1.15,2013-06-16 07:50:00,
2013-06-16 03:55:00,57.0,52.9,29.85,West,268,0.0,0.0,86,0.00,,,0.00,Wunderground v.1.15,2013-06-16 07:55:00,
2013-06-16 04:00:00,57.0,52.5,29.85,West,268,0.0,0.0,85,0.00,,,0.00,Wunderground v.1.15,2013-06-16 08:00:00,
2013-06-16 04:05:00,57.0,52.5,29.86,West,268,0.0,0.0,85,0.00,,,0.00,Wunderground v.1.15,2013-06-16 08:05:00,
2013-06-16 04:10:00,56.9,52.8,29.85,West,268,0.0,0.0,86,0.00,,,0.00,Wunderground v.1.15,2013-06-16 08:10:00,
2013-06-16 04:20:00,56.7,52.6,29.85,West,268,0.0,0.0,86,0.00,,,0.00,Wunderground v.1.15,2013-06-16 08:20:00,
2013-06-16 04:25:00,56.4,52.3,29.85,West,268,0.0,0.0,86,0.00,,,0.00,Wunderground v.1.15,2013-06-16 08:25:00,
2013-06-16 04:30:00,56.2,52.4,29.85,West,268,0.0,0.0,87,0.00,,,0.00,Wunderground v.1.15,2013-06-16 08:30:00,
2013-06-16 04:35:00,55.9,52.1,29.85,West,268,0.0,0.0,87,0.00,,,0.00,Wunderground v.1.15,2013-06-16 08:35:00,
2013-06-16 04:40:00,55.6,51.8,29.85,West,268,0.0,0.0,87,0.00,,,0.00,Wunderground v.1.15,2013-06-16 08:40:00,
2013-06-16 04:45:00,55.3,51.5,29.84,West,268,0.0,0.0,87,0.00,,,0.00,Wunderground v.1.15,2013-06-16 08:45:00,
2013-06-16 04:50:00,55.1,51.6,29.84,West,268,0.0,0.0,88,0.00,,,0.00,Wunderground v.1.15,2013-06-16 08:50:00,
2013-06-16 04:55:00,54.9,51.4,29.85,West,268,0.0,0.0,88,0.00,,,0.00,Wunderground v.1.15,2013-06-16 08:55:00,
2013-06-16 05:05:00,54.5,51.3,29.85,West,268,0.0,0.0,89,0.00,,,0.00,Wunderground v.1.15,2013-06-16 09:05:00,
2013-06-16 05:10:00,54.5,51.3,29.85,West,268,0.0,0.0,89,0.00,,,0.00,Wunderground v.1.15,2013-06-16 09:10:00,
2013-06-16 05:15:00,54.7,51.5,29.85,West,268,0.0,0.0,89,0.00,,,0.00,Wunderground v.1.15,2013-06-16 09:15:00,
2013-06-16 05:25:00,55.4,52.2,29.85,West,268,0.0,0.0,89,0.00,,,0.00,Wunderground v.1.15,2013-06-16 09:25:00,
2013-06-16 05:30:00,55.4,52.2,29.85,West,268,0.0,0.0,89,0.00,,,0.00,Wunderground v.1.15,2013-06-16 09:30:00,
2013-06-16 05:35:00,55.7,52.5,29.86,West,268,0.0,0.0,89,0.00,,,0.00,Wunderground v.1.15,2013-06-16 09:35:00,
2013-06-16 05:40:00,55.9,52.4,29.86,West,268,0.0,0.0,88,0.00,,,0.00,Wunderground v.1.15,2013-06-16 09:40:00,
2013-06-16 05:45:00,56.2,52.4,29.86,West,268,0.0,0.0,87,0.00,,,0.00,Wunderground v.1.15,2013-06-16 09:45:00,
2013-06-16 05:50:00,56.5,52.7,29.86,West,268,0.0,0.0,87,0.00,,,0.00,Wunderground v.1.15,2013-06-16 09:50:00,
2013-06-16 05:55:00,56.7,52.6,29.86,West,268,0.0,0.0,86,0.00,,,0.00,Wunderground v.1.15,2013-06-16 09:55:00,
2013-06-16 06:00:00,56.7,52.6,29.86,West,268,0.0,0.0,86,0.00,,,0.00,Wunderground v.1.15,2013-06-16 10:00:00,
2013-06-16 06:05:00,56.7,52.6,29.85,West,268,0.0,0.0,86,0.00,,,0.00,Wunderground v.1.15,2013-06-16 10:05:00,
2013-06-16 06:10:00,56.6,52.8,29.86,West,268,0.0,0.0,87,0.00,,,0.00,Wunderground v.1.15,2013-06-16 10:10:00,
2013-06-16 06:15:00,56.7,52.9,29.86,West,268,0.0,0.0,87,0.00,,,0.00,Wunderground v.1.15,2013-06-16 10:15:00,
2013-06-16 06:20:00,57.2,53.0,29.86,West,268,0.0,1.0,86,0.00,,,0.00,Wunderground v.1.15,2013-06-16 10:20:00,
2013-06-16 06:30:00,58.5,53.7,29.87,West,268,0.0,0.0,84,0.00,,,0.00,Wunderground v.1.15,2013-06-16 10:30:00,
2013-06-16 06:35:00,59.0,53.8,29.86,West,268,0.0,0.0,83,0.00,,,0.00,Wunderground v.1.15,2013-06-16 10:35:00,
2013-06-16 06:45:00,59.1,54.3,29.85,West,268,0.0,0.0,84,0.00,,,0.00,Wunderground v.1.15,2013-06-16 10:45:00,
2013-06-16 06:50:00,59.4,54.2,29.85,West,268,0.0,0.0,83,0.00,,,0.00,Wunderground v.1.15,2013-06-16 10:50:00,
2013-06-16 06:55:00,59.7,54.5,29.86,West,268,0.0,0.0,83,0.00,,,0.00,Wunderground v.1.15,2013-06-16 10:55:00,
2013-06-16 07:00:00,60.0,54.8,29.86,West,268,0.0,0.0,83,0.00,,,0.00,Wunderground v.1.15,2013-06-16 11:00:00,
2013-06-16 07:05:00,60.3,54.8,29.86,West,268,0.0,0.0,82,0.00,,,0.00,Wunderground v.1.15,2013-06-16 11:05:00,
2013-06-16 07:15:00,60.7,55.2,29.86,West,268,0.0,0.0,82,0.00,,,0.00,Wunderground v.1.15,2013-06-16 11:15:00,
2013-06-16 07:20:00,60.9,55.4,29.86,West,268,0.0,0.0,82,0.00,,,0.00,Wunderground v.1.15,2013-06-16 11:20:00,
2013-06-16 07:30:00,61.6,55.4,29.86,West,268,0.0,0.0,80,0.00,,,0.00,Wunderground v.1.15,2013-06-16 11:30:00,
2013-06-16 07:35:00,61.8,55.2,29.86,West,268,0.0,0.0,79,0.00,,,0.00,Wunderground v.1.15,2013-06-16 11:35:00,
2013-06-16 07:40:00,62.0,55.8,29.86,West,268,0.0,0.0,80,0.00,,,0.00,Wunderground v.1.15,2013-06-16 11:40:00,
2013-06-16 07:45:00,62.4,56.1,29.86,West,268,0.0,0.0,80,0.00,,,0.00,Wunderground v.1.15,2013-06-16 11:45:00,
2013-06-16 07:50:00,62.7,56.4,29.86,West,268,0.0,0.0,80,0.00,,,0.00,Wunderground v.1.15,2013-06-16 11:50:00,
2013-06-16 07:55:00,63.1,56.5,29.86,West,268,0.0,0.0,79,0.00,,,0.00,Wunderground v.1.15,2013-06-16 11:55:00,
2013-06-16 08:00:00,63.5,56.9,29.86,West,268,0.0,0.0,79,0.00,,,0.00,Wunderground v.1.15,2013-06-16 12:00:00,
2013-06-16 08:05:00,64.2,57.2,29.86,West,268,0.0,1.0,78,0.00,,,0.00,Wunderground v.1.15,2013-06-16 12:05:00,
2013-06-16 08:10:00,65.1,58.1,29.86,West,268,0.0,0.0,78,0.00,,,0.00,Wunderground v.1.15,2013-06-16 12:10:00,
2013-06-16 08:15:00,66.2,58.0,29.86,West,268,0.0,1.0,75,0.00,,,0.00,Wunderground v.1.15,2013-06-16 12:15:00,
2013-06-16 08:20:00,66.9,58.3,29.86,West,272,0.0,2.0,74,0.00,,,0.00,Wunderground v.1.15,2013-06-16 12:20:00,
2013-06-16 08:30:00,66.9,57.2,29.86,West,272,0.0,1.0,71,0.00,,,0.00,Wunderground v.1.15,2013-06-16 12:30:00,
2013-06-16 08:35:00,66.9,57.6,29.86,West,272,0.0,1.0,72,0.00,,,0.00,Wunderground v.1.15,2013-06-16 12:35:00,
2013-06-16 08:40:00,67.0,57.3,29.86,West,272,0.0,0.0,71,0.00,,,0.00,Wunderground v.1.15,2013-06-16 12:40:00,
2013-06-16 08:45:00,67.4,57.3,29.86,West,272,0.0,0.0,70,0.00,,,0.00,Wunderground v.1.15,2013-06-16 12:45:00,
2013-06-16 08:55:00,68.4,57.4,29.85,West,272,0.0,1.0,68,0.00,,,0.00,Wunderground v.1.15,2013-06-16 12:55:00,
2013-06-16 09:00:00,68.5,57.5,29.85,West,272,0.0,0.0,68,0.00,,,0.00,Wunderground v.1.15,2013-06-16 13:00:00,
2013-06-16 09:05:00,68.7,57.7,29.85,West,274,0.0,0.0,68,0.00,,,0.00,Wunderground v.1.15,2013-06-16 13:05:00,
2013-06-16 09:10:00,68.9,57.9,29.85,West,274,0.0,1.0,68,0.00,,,0.00,Wunderground v.1.15,2013-06-16 13:10:00,
2013-06-16 09:15:00,68.9,57.5,29.85,West,273,0.0,1.0,67,0.00,,,0.00,Wunderground v.1.15,2013-06-16 13:15:00,
2013-06-16 09:20:00,68.8,57.8,29.86,West,274,0.0,0.0,68,0.00,,,0.00,Wunderground v.1.15,2013-06-16 13:20:00,
2013-06-16 09:25:00,68.7,57.7,29.85,West,274,0.0,0.0,68,0.00,,,0.00,Wunderground v.1.15,2013-06-16 13:25:00,
2013-06-16 09:35:00,68.8,58.2,29.85,West,275,0.0,0.0,69,0.00,,,0.00,Wunderground v.1.15,2013-06-16 13:35:00,
2013-06-16 09:40:00,68.7,57.7,29.85,West,275,0.0,0.0,68,0.00,,,0.00,Wunderground v.1.15,2013-06-16 13:40:00,
2013-06-16 09:45:00,68.7,58.1,29.85,West,275,0.0,0.0,69,0.00,,,0.00,Wunderground v.1.15,2013-06-16 13:45:00,
2013-06-16 09:50:00,68.8,58.2,29.85,West,275,0.0,0.0,69,0.00,,,0.00,Wunderground v.1.15,2013-06-16 13:50:00,
2013-06-16 09:55:00,69.0,58.4,29.84,West,275,0.0,0.0,69,0.00,,,0.00,Wunderground v.1.15,2013-06-16 13:55:00,
2013-06-16 10:00:00,69.2,58.6,29.84,West,275,0.0,0.0,69,0.00,,,0.00,Wunderground v.1.15,2013-06-16 14:00:00,
2013-06-16 10:05:00,69.5,58.5,29.84,West,275,0.0,1.0,68,0.00,,,0.00,Wunderground v.1.15,2013-06-16 14:05:00,
2013-06-16 10:10:00,69.6,58.2,29.83,West,277,0.0,3.0,67,0.00,,,0.00,Wunderground v.1.15,2013-06-16 14:10:00,
2013-06-16 10:15:00,70.0,59.0,29.83,West,277,0.0,3.0,68,0.00,,,0.00,Wunderground v.1.15,2013-06-16 14:15:00,
2013-06-16 10:20:00,70.7,59.2,29.84,NNW,348,0.0,1.0,67,0.00,,,0.00,Wunderground v.1.15,2013-06-16 14:20:00,
2013-06-16 10:30:00,72.0,59.6,29.83,NNW,348,0.0,0.0,65,0.00,,,0.00,Wunderground v.1.15,2013-06-16 14:30:00,
2013-06-16 10:35:00,72.6,59.7,29.83,NNW,348,0.0,1.0,64,0.00,,,0.00,Wunderground v.1.15,2013-06-16 14:35:00,
2013-06-16 10:40:00,73.1,59.8,29.83,NNW,348,0.0,1.0,63,0.00,,,0.00,Wunderground v.1.15,2013-06-16 14:40:00,
2013-06-16 10:45:00,73.8,59.5,29.83,NNW,348,0.0,1.0,61,0.00,,,0.00,Wunderground v.1.15,2013-06-16 14:45:00,
2013-06-16 10:50:00,74.5,60.6,29.82,North,355,0.0,0.0,62,0.00,,,0.00,Wunderground v.1.15,2013-06-16 14:50:00,
2013-06-16 10:55:00,75.1,59.8,29.82,North,355,0.0,1.0,59,0.00,,,0.00,Wunderground v.1.15,2013-06-16 14:55:00,
2013-06-16 11:00:00,75.5,58.7,29.82,North,360,0.0,1.0,56,0.00,,,0.00,Wunderground v.1.15,2013-06-16 15:00:00,
2013-06-16 11:05:00,75.7,59.9,29.81,North,360,0.0,1.0,58,0.00,,,0.00,Wunderground v.1.15,2013-06-16 15:05:00,
2013-06-16 11:10:00,75.9,59.6,29.81,North,360,0.0,1.0,57,0.00,,,0.00,Wunderground v.1.15,2013-06-16 15:10:00,
2013-06-16 11:15:00,76.2,59.4,29.81,North,10,0.0,1.0,56,0.00,,,0.00,Wunderground v.1.15,2013-06-16 15:15:00,
2013-06-16 11:20:00,76.4,59.0,29.81,North,10,0.0,1.0,55,0.00,,,0.00,Wunderground v.1.15,2013-06-16 15:20:00,
2013-06-16 11:25:00,76.9,60.0,29.81,NNE,19,0.0,1.0,56,0.00,,,0.00,Wunderground v.1.15,2013-06-16 15:25:00,
2013-06-16 11:30:00,77.2,60.3,29.81,NNE,19,0.0,0.0,56,0.00,,,0.00,Wunderground v.1.15,2013-06-16 15:30:00,
2013-06-16 11:40:00,76.6,59.7,29.80,NNE,20,0.0,0.0,56,0.00,,,0.00,Wunderground v.1.15,2013-06-16 15:40:00,
2013-06-16 11:45:00,75.9,59.1,29.80,NNE,19,0.0,1.0,56,0.00,,,0.00,Wunderground v.1.15,2013-06-16 15:45:00,
2013-06-16 11:50:00,75.5,59.2,29.80,NNE,20,0.0,1.0,57,0.00,,,0.00,Wunderground v.1.15,2013-06-16 15:50:00,
2013-06-16 11:55:00,75.3,59.0,29.80,NNE,20,0.0,1.0,57,0.00,,,0.00,Wunderground v.1.15,2013-06-16 15:55:00,
2013-06-16 12:00:00,75.3,58.5,29.80,NNE,20,0.0,1.0,56,0.00,,,0.00,Wunderground v.1.15,2013-06-16 16:00:00,
2013-06-16 12:05:00,75.3,59.0,29.80,NNE,19,0.0,1.0,57,0.00,,,0.00,Wunderground v.1.15,2013-06-16 16:05:00,
2013-06-16 12:10:00,75.3,60.9,29.80,NNE,20,0.0,1.0,61,0.00,,,0.00,Wunderground v.1.15,2013-06-16 16:10:00,
2013-06-16 12:15:00,75.5,60.6,29.80,NNE,20,0.0,1.0,60,0.00,,,0.00,Wunderground v.1.15,2013-06-16 16:15:00,
2013-06-16 12:20:00,75.8,60.4,29.79,NNE,19,0.0,0.0,59,0.00,,,0.00,Wunderground v.1.15,2013-06-16 16:20:00,
2013-06-16 12:25:00,76.2,61.3,29.79,NNE,20,0.0,0.0,60,0.00,,,0.00,Wunderground v.1.15,2013-06-16 16:25:00,
2013-06-16 12:30:00,76.5,61.6,29.79,NNE,30,0.0,4.0,60,0.00,,,0.00,Wunderground v.1.15,2013-06-16 16:30:00,
2013-06-16 12:35:00,76.5,60.1,29.79,NNE,30,0.0,4.0,57,0.00,,,0.00,Wunderground v.1.15,2013-06-16 16:35:00,
2013-06-16 12:45:00,76.1,58.8,29.79,NNE,30,0.0,1.0,55,0.00,,,0.00,Wunderground v.1.15,2013-06-16 16:45:00,
2013-06-16 12:50:00,76.0,58.7,29.78,NNE,30,0.0,1.0,55,0.00,,,0.00,Wunderground v.1.15,2013-06-16 16:50:00,
2013-06-16 12:55:00,76.5,59.1,29.78,NNE,30,0.0,1.0,55,0.00,,,0.00,Wunderground v.1.15,2013-06-16 16:55:00,
2013-06-16 13:00:00,77.0,59.6,29.77,NNE,30,0.0,0.0,55,0.00,,,0.00,Wunderground v.1.15,2013-06-16 17:00:00,
2013-06-16 13:05:00,77.2,59.8,29.78,NNE,30,0.0,1.0,55,0.00,,,0.00,Wunderground v.1.15,2013-06-16 17:05:00,
2013-06-16 13:15:00,76.5,59.1,29.77,NNE,30,0.0,0.0,55,0.00,,,0.00,Wunderground v.1.15,2013-06-16 17:15:00,
2013-06-16 13:20:00,76.3,59.9,29.77,NNE,30,0.0,0.0,57,0.00,,,0.00,Wunderground v.1.15,2013-06-16 17:20:00,
2013-06-16 13:25:00,76.0,59.7,29.76,NNE,30,0.0,1.0,57,0.00,,,0.00,Wunderground v.1.15,2013-06-16 17:25:00,
2013-06-16 13:30:00,75.9,61.0,29.76,NNE,30,0.0,0.0,60,0.00,,,0.00,Wunderground v.1.15,2013-06-16 17:30:00,
2013-06-16 13:35:00,75.8,60.4,29.76,NNE,30,0.0,1.0,59,0.00,,,0.00,Wunderground v.1.15,2013-06-16 17:35:00,
2013-06-16 13:45:00,75.6,61.2,29.76,NE,50,0.0,5.0,61,0.00,,,0.00,Wunderground v.1.15,2013-06-16 17:45:00,
2013-06-16 13:50:00,75.5,60.6,29.76,NE,50,0.0,1.0,60,0.00,,,0.00,Wunderground v.1.15,2013-06-16 17:50:00,
2013-06-16 13:55:00,75.5,60.6,29.76,NE,50,0.0,1.0,60,0.00,,,0.00,Wunderground v.1.15,2013-06-16 17:55:00,
2013-06-16 14:00:00,75.5,59.7,29.76,NE,49,0.0,0.0,58,0.00,,,0.00,Wunderground v.1.15,2013-06-16 18:00:00,
2013-06-16 14:05:00,75.7,59.9,29.75,NE,50,0.0,1.0,58,0.00,,,0.00,Wunderground v.1.15,2013-06-16 18:05:00,
2013-06-16 14:10:00,75.7,59.4,29.75,NE,50,0.0,0.0,57,0.00,,,0.00,Wunderground v.1.15,2013-06-16 18:10:00,
2013-06-16 14:15:00,75.9,61.0,29.75,NE,49,0.0,1.0,60,0.00,,,0.00,Wunderground v.1.15,2013-06-16 18:15:00,
2013-06-16 14:20:00,76.0,60.6,29.75,NE,50,0.0,1.0,59,0.00,,,0.00,Wunderground v.1.15,2013-06-16 18:20:00,
2013-06-16 14:25:00,76.1,61.7,29.74,NE,50,0.0,1.0,61,0.00,,,0.00,Wunderground v.1.15,2013-06-16 18:25:00,
2013-06-16 14:35:00,75.9,61.0,29.74,NE,50,0.0,1.0,60,0.00,,,0.00,Wunderground v.1.15,2013-06-16 18:35:00,
2013-06-16 14:40:00,75.9,61.0,29.74,NE,49,0.0,1.0,60,0.00,,,0.00,Wunderground v.1.15,2013-06-16 18:40:00,
2013-06-16 14:50:00,75.7,60.8,29.74,NE,49,0.0,0.0,60,0.00,,,0.00,Wunderground v.1.15,2013-06-16 18:50:00,
2013-06-16 14:55:00,75.5,60.2,29.73,ESE,114,0.0,1.0,59,0.00,,,0.00,Wunderground v.1.15,2013-06-16 18:55:00,
2013-06-16 15:00:00,75.2,59.9,29.73,ESE,111,0.0,6.0,59,0.00,,,0.00,Wunderground v.1.15,2013-06-16 19:00:00,
2013-06-16 15:05:00,75.0,60.2,29.73,ESE,111,0.0,6.0,60,0.00,,,0.00,Wunderground v.1.15,2013-06-16 19:05:00,
2013-06-16 15:10:00,74.8,60.9,29.73,ESE,110,0.0,0.0,62,0.00,,,0.00,Wunderground v.1.15,2013-06-16 19:10:00,
2013-06-16 15:15:00,74.9,61.5,29.72,ESE,111,0.0,0.0,63,0.00,,,0.00,Wunderground v.1.15,2013-06-16 19:15:00,
2013-06-16 15:20:00,74.9,61.9,29.72,ESE,111,0.0,0.0,64,0.00,,,0.00,Wunderground v.1.15,2013-06-16 19:20:00,
2013-06-16 15:25:00,74.7,61.3,29.72,ESE,110,0.0,0.0,63,0.00,,,0.00,Wunderground v.1.15,2013-06-16 19:25:00,
2013-06-16 15:35:00,74.6,62.1,29.71,ESE,111,0.0,0.0,65,0.00,,,0.00,Wunderground v.1.15,2013-06-16 19:35:00,
2013-06-16 15:40:00,74.9,62.8,29.71,ESE,111,0.0,0.0,66,0.00,,,0.00,Wunderground v.1.15,2013-06-16 19:40:00,
2013-06-16 15:45:00,75.3,63.2,29.71,ESE,109,0.0,4.0,66,0.00,,,0.00,Wunderground v.1.15,2013-06-16 19:45:00,
2013-06-16 15:50:00,75.5,63.3,29.71,ESE,109,0.0,0.0,66,0.00,,,0.00,Wunderground v.1.15,2013-06-16 19:50:00,
2013-06-16 15:55:00,75.5,62.9,29.70,ESE,107,0.0,6.0,65,0.00,,,0.00,Wunderground v.1.15,2013-06-16 19:55:00,
2013-06-16 16:00:00,75.3,61.8,29.70,ESE,107,0.0,1.0,63,0.00,,,0.00,Wunderground v.1.15,2013-06-16 20:00:00,
2013-06-16 16:05:00,74.9,62.3,29.70,ESE,107,0.0,1.0,65,0.00,,,0.00,Wunderground v.1.15,2013-06-16 20:05:00,
2013-06-16 16:10:00,74.5,61.5,29.70,ESE,107,0.0,1.0,64,0.00,,,0.00,Wunderground v.1.15,2013-06-16 20:10:00,
2013-06-16 16:15:00,74.1,61.6,29.70,ESE,107,0.0,1.0,65,0.00,,,0.00,Wunderground v.1.15,2013-06-16 20:15:00,
2013-06-16 16:20:00,73.7,61.6,29.69,ESE,107,0.0,0.0,66,0.00,,,0.00,Wunderground v.1.15,2013-06-16 20:20:00,
2013-06-16 16:25:00,73.3,61.7,29.69,ESE,107,0.0,0.0,67,0.00,,,0.00,Wunderground v.1.15,2013-06-16 20:25:00,
2013-06-16 16:30:00,73.1,61.5,29.69,ESE,107,0.0,1.0,67,0.00,,,0.00,Wunderground v.1.15,2013-06-16 20:30:00,
2013-06-16 16:35:00,72.9,61.3,29.69,ESE,107,0.0,1.0,67,0.00,,,0.00,Wunderground v.1.15,2013-06-16 20:35:00,
2013-06-16 16:40:00,72.8,61.2,29.69,ESE,107,0.0,0.0,67,0.00,,,0.00,Wunderground v.1.15,2013-06-16 20:40:00,
2013-06-16 16:45:00,72.7,61.1,29.69,ESE,107,0.0,1.0,67,0.00,,,0.00,Wunderground v.1.15,2013-06-16 20:45:00,
2013-06-16 16:55:00,72.6,61.0,29.69,ESE,107,0.0,0.0,67,0.00,,,0.00,Wunderground v.1.15,2013-06-16 20:55:00,
2013-06-16 17:00:00,72.5,61.3,29.68,ESE,107,0.0,0.0,68,0.00,,,0.00,Wunderground v.1.15,2013-06-16 21:00:00,
2013-06-16 17:05:00,72.4,61.2,29.68,ESE,107,0.0,0.0,68,0.00,,,0.00,Wunderground v.1.15,2013-06-16 21:05:00,
2013-06-16 17:10:00,72.4,61.7,29.68,ESE,107,0.0,0.0,69,0.00,,,0.00,Wunderground v.1.15,2013-06-16 21:10:00,
2013-06-16 17:15:00,72.3,61.1,29.68,ESE,107,0.0,1.0,68,0.00,,,0.00,Wunderground v.1.15,2013-06-16 21:15:00,
2013-06-16 17:20:00,72.3,61.1,29.68,ESE,107,0.0,2.0,68,0.00,,,0.00,Wunderground v.1.15,2013-06-16 21:20:00,
2013-06-16 17:30:00,72.2,61.5,29.68,ESE,107,0.0,0.0,69,0.00,,,0.00,Wunderground v.1.15,2013-06-16 21:30:00,
2013-06-16 17:40:00,72.0,60.9,29.68,ESE,107,0.0,0.0,68,0.00,,,0.00,Wunderground v.1.15,2013-06-16 21:40:00,
2013-06-16 17:45:00,71.9,60.8,29.68,ESE,107,0.0,0.0,68,0.00,,,0.00,Wunderground v.1.15,2013-06-16 21:45:00,
2013-06-16 17:50:00,71.8,61.1,29.68,ESE,107,0.0,0.0,69,0.00,,,0.00,Wunderground v.1.15,2013-06-16 21:50:00,
2013-06-16 18:00:00,71.5,60.0,29.68,East,98,0.0,3.0,67,0.00,,,0.00,Wunderground v.1.15,2013-06-16 22:00:00,
2013-06-16 18:05:00,71.5,60.4,29.67,East,96,1.0,3.0,68,0.00,,,0.00,Wunderground v.1.15,2013-06-16 22:05:00,
2013-06-16 18:10:00,71.4,59.9,29.66,East,96,0.0,0.0,67,0.00,,,0.00,Wunderground v.1.15,2013-06-16 22:10:00,
2013-06-16 18:15:00,71.3,60.2,29.66,East,96,0.0,2.0,68,0.00,,,0.00,Wunderground v.1.15,2013-06-16 22:15:00,
2013-06-16 18:25:00,71.2,60.1,29.66,East,96,0.0,0.0,68,0.00,,,0.00,Wunderground v.1.15,2013-06-16 22:25:00,
2013-06-16 18:30:00,71.1,60.0,29.66,East,96,0.0,0.0,68,0.00,,,0.00,Wunderground v.1.15,2013-06-16 22:30:00,
2013-06-16 18:35:00,71.0,60.3,29.66,East,95,0.0,0.0,69,0.00,,,0.00,Wunderground v.1.15,2013-06-16 22:35:00,
2013-06-16 18:40:00,70.9,60.2,29.66,East,95,0.0,0.0,69,0.00,,,0.00,Wunderground v.1.15,2013-06-16 22:40:00,
2013-06-16 18:45:00,70.8,60.1,29.66,East,95,0.0,0.0,69,0.00,,,0.00,Wunderground v.1.15,2013-06-16 22:45:00,
2013-06-16 18:50:00,70.8,60.5,29.66,East,96,0.0,0.0,70,0.00,,,0.00,Wunderground v.1.15,2013-06-16 22:50:00,
2013-06-16 18:55:00,70.7,60.4,29.65,East,95,0.0,1.0,70,0.00,,,0.00,Wunderground v.1.15,2013-06-16 22:55:00,
2013-06-16 19:00:00,70.7,60.4,29.65,East,95,0.0,0.0,70,0.00,,,0.00,Wunderground v.1.15,2013-06-16 23:00:00,
2013-06-16 19:05:00,70.7,60.4,29.65,East,96,0.0,0.0,70,0.00,,,0.00,Wunderground v.1.15,2013-06-16 23:05:00,
2013-06-16 19:10:00,70.7,60.8,29.65,East,95,0.0,1.0,71,0.00,,,0.00,Wunderground v.1.15,2013-06-16 23:10:00,
2013-06-16 19:15:00,70.7,60.8,29.64,East,95,0.0,1.0,71,0.00,,,0.00,Wunderground v.1.15,2013-06-16 23:15:00,
2013-06-16 19:20:00,70.6,60.7,29.64,East,95,0.0,0.0,71,0.00,,,0.00,Wunderground v.1.15,2013-06-16 23:20:00,
2013-06-16 19:25:00,70.6,61.1,29.64,East,95,0.0,0.0,72,0.00,,,0.00,Wunderground v.1.15,2013-06-16 23:25:00,
2013-06-16 19:30:00,70.4,60.9,29.65,East,95,0.0,0.0,72,0.00,,,0.00,Wunderground v.1.15,2013-06-16 23:30:00,
2013-06-16 19:35:00,70.3,60.8,29.64,East,95,0.0,0.0,72,0.00,,,0.00,Wunderground v.1.15,2013-06-16 23:35:00,
2013-06-16 19:40:00,70.3,61.2,29.65,East,95,0.0,0.0,73,0.00,,,0.00,Wunderground v.1.15,2013-06-16 23:40:00,
2013-06-16 19:45:00,70.2,61.1,29.65,East,95,0.0,3.0,73,0.00,,,0.00,Wunderground v.1.15,2013-06-16 23:45:00,
2013-06-16 19:50:00,70.1,61.0,29.65,East,95,0.0,0.0,73,0.00,,,0.00,Wunderground v.1.15,2013-06-16 23:50:00,
2013-06-16 19:55:00,70.0,60.9,29.65,East,95,0.0,0.0,73,0.00,,,0.00,Wunderground v.1.15,2013-06-16 23:55:00,
2013-06-16 20:05:00,69.8,61.1,29.65,East,95,0.0,0.0,74,0.00,,,0.00,Wunderground v.1.15,2013-06-17 00:05:00,
2013-06-16 20:10:00,69.7,61.0,29.65,East,95,0.0,0.0,74,0.00,,,0.00,Wunderground v.1.15,2013-06-17 00:10:00,
2013-06-16 20:15:00,69.5,61.2,29.65,East,95,0.0,0.0,75,0.00,,,0.00,Wunderground v.1.15,2013-06-17 00:15:00,
2013-06-16 20:20:00,69.4,61.1,29.65,East,96,0.0,0.0,75,0.00,,,0.00,Wunderground v.1.15,2013-06-17 00:20:00,
2013-06-16 20:25:00,69.3,61.0,29.65,East,95,0.0,0.0,75,0.00,,,0.00,Wunderground v.1.15,2013-06-17 00:25:00,
2013-06-16 20:30:00,69.2,61.3,29.65,East,96,0.0,0.0,76,0.00,,,0.00,Wunderground v.1.15,2013-06-17 00:30:00,
2013-06-16 20:35:00,69.1,61.2,29.65,East,95,0.0,0.0,76,0.00,,,0.00,Wunderground v.1.15,2013-06-17 00:35:00,
2013-06-16 20:40:00,69.0,61.1,29.65,East,95,0.0,0.0,76,0.00,,,0.00,Wunderground v.1.15,2013-06-17 00:40:00,
2013-06-16 20:45:00,68.9,61.4,29.65,East,95,0.0,0.0,77,0.00,,,0.00,Wunderground v.1.15,2013-06-17 00:45:00,
2013-06-16 20:50:00,68.8,61.3,29.65,East,95,0.0,0.0,77,0.00,,,0.00,Wunderground v.1.15,2013-06-17 00:50:00,
2013-06-16 20:55:00,68.6,61.1,29.65,East,95,0.0,0.0,77,0.00,,,0.00,Wunderground v.1.15,2013-06-17 00:55:00,
2013-06-16 21:00:00,68.4,61.3,29.65,East,95,0.0,0.0,78,0.00,,,0.00,Wunderground v.1.15,2013-06-17 01:00:00,
2013-06-16 21:10:00,68.1,61.3,29.65,East,95,0.0,0.0,79,0.00,,,0.00,Wunderground v.1.15,2013-06-17 01:10:00,
2013-06-16 21:15:00,68.1,61.7,29.66,East,95,0.0,0.0,80,0.00,,,0.00,Wunderground v.1.15,2013-06-17 01:15:00,
2013-06-16 21:20:00,68.0,61.6,29.66,East,96,0.0,0.0,80,0.00,,,0.00,Wunderground v.1.15,2013-06-17 01:20:00,
2013-06-16 21:25:00,68.0,61.9,29.66,East,95,0.0,0.0,81,0.00,,,0.00,Wunderground v.1.15,2013-06-17 01:25:00,
2013-06-16 21:30:00,67.9,61.9,29.66,East,95,0.0,0.0,81,0.00,,,0.00,Wunderground v.1.15,2013-06-17 01:30:00,
2013-06-16 21:35:00,67.8,62.1,29.66,East,95,0.0,0.0,82,0.00,,,0.00,Wunderground v.1.15,2013-06-17 01:35:00,
2013-06-16 21:40:00,67.9,62.2,29.66,East,95,0.0,0.0,82,0.00,,,0.00,Wunderground v.1.15,2013-06-17 01:40:00,
2013-06-16 21:45:00,67.9,62.2,29.67,East,95,0.0,0.0,82,0.00,,,0.00,Wunderground v.1.15,2013-06-17 01:45:00,
2013-06-16 21:50:00,67.9,62.2,29.67,East,95,0.0,0.0,82,0.00,,,0.00,Wunderground v.1.15,2013-06-17 01:50:00,
2013-06-16 21:55:00,68.0,62.6,29.67,East,95,0.0,0.0,83,0.00,,,0.00,Wunderground v.1.15,2013-06-17 01:55:00,
2013-06-16 22:00:00,68.0,62.6,29.67,East,95,0.0,0.0,83,0.00,,,0.00,Wunderground v.1.15,2013-06-17 02:00:00,
2013-06-16 22:05:00,68.0,62.6,29.67,East,95,0.0,0.0,83,0.00,,,0.00,Wunderground v.1.15,2013-06-17 02:05:00,
2013-06-16 22:15:00,67.9,62.9,29.67,East,95,0.0,1.0,84,0.00,,,0.00,Wunderground v.1.15,2013-06-17 02:15:00,
2013-06-16 22:25:00,67.7,62.7,29.67,East,95,0.0,0.0,84,0.00,,,0.00,Wunderground v.1.15,2013-06-17 02:25:00,
2013-06-16 22:30:00,67.6,62.6,29.67,East,95,0.0,0.0,84,0.00,,,0.00,Wunderground v.1.15,2013-06-17 02:30:00,
2013-06-16 22:35:00,67.4,62.7,29.67,East,95,0.0,0.0,85,0.00,,,0.00,Wunderground v.1.15,2013-06-17 02:35:00,
2013-06-16 22:40:00,67.2,62.5,29.67,East,95,0.0,0.0,85,0.00,,,0.00,Wunderground v.1.15,2013-06-17 02:40:00,
2013-06-16 22:45:00,67.0,62.7,29.67,East,95,0.0,0.0,86,0.00,,,0.00,Wunderground v.1.15,2013-06-17 02:45:00,
2013-06-16 22:50:00,66.8,62.5,29.68,East,95,0.0,0.0,86,0.00,,,0.00,Wunderground v.1.15,2013-06-17 02:50:00,
2013-06-16 22:55:00,66.7,62.4,29.68,East,95,0.0,0.0,86,0.00,,,0.00,Wunderground v.1.15,2013-06-17 02:55:00,
2013-06-16 23:00:00,66.5,62.2,29.68,East,95,0.0,0.0,86,0.00,,,0.00,Wunderground v.1.15,2013-06-17 03:00:00,
2013-06-16 23:05:00,66.3,62.0,29.67,East,95,0.0,0.0,86,0.00,,,0.00,Wunderground v.1.15,2013-06-17 03:05:00,
2013-06-16 23:10:00,66.1,62.1,29.68,East,95,0.0,0.0,87,0.00,,,0.00,Wunderground v.1.15,2013-06-17 03:10:00,
2013-06-16 23:20:00,65.7,61.7,29.68,East,95,0.0,0.0,87,0.00,,,0.00,Wunderground v.1.15,2013-06-17 03:20:00,
2013-06-16 23:25:00,65.6,61.6,29.68,East,96,0.0,0.0,87,0.00,,,0.00,Wunderground v.1.15,2013-06-17 03:25:00,
2013-06-16 23:30:00,65.5,61.9,29.68,East,95,0.0,0.0,88,0.00,,,0.00,Wunderground v.1.15,2013-06-17 03:30:00,
2013-06-16 23:35:00,65.4,61.8,29.69,East,95,0.0,0.0,88,0.00,,,0.00,Wunderground v.1.15,2013-06-17 03:35:00,
2013-06-16 23:40:00,65.3,61.7,29.69,East,95,0.0,0.0,88,0.00,,,0.00,Wunderground v.1.15,2013-06-17 03:40:00,
2013-06-16 23:45:00,65.5,61.9,29.69,East,95,0.0,0.0,88,0.00,,,0.00,Wunderground v.1.15,2013-06-17 03:45:00,
2013-06-16 23:50:00,65.9,61.9,29.69,East,95,0.0,0.0,87,0.00,,,0.00,Wunderground v.1.15,2013-06-17 03:50:00,
2013-06-16 23:55:00,66.2,61.9,29.69,East,95,0.0,4.0,86,0.00,,,0.00,Wunderground v.1.15,2013-06-17 03:55:00,